Location: City of Moscow
(46.7306°N, 116.9989°W)
Time: 04:10:01
(UTC+00:00)

Cosmos 2082 Rocket - Pass Details

Date: 11 December 2025
Orbit: 833 x 852 km, 71.0° (Epoch: 13 January)

Event Time Altitude Azimuth Distance (km) Brightness Sun altitude
Exits shadow 13:20:39 27° 327° (NNW) 1,558 3.2 -20.0°
Drops below altitude 10° 13:24:35 10° 10° (N) 2,452 4.6 -19.3°
Sets 13:27:23 0° 22° (NNE) 3,390 5.4 -18.9°
